Weather History for KCOM - January, 2013

Change the Weather History Date:

Tuesday, January 1, 2013

  Actual Average (KABI) Record (KABI)
Temperature  
Mean Temperature 38 °F 44 °F  
Max Temperature 45 °F 56 °F 82 °F (1910)
Min Temperature 30 °F 33 °F 9 °F (1928)
Degree Days  
Heating Degree Days 28 21  
Month to date heating degree days 21  
Since 1 July heating degree days 1066  
Cooling Degree Days 0 0  
Month to date cooling degree days 0  
Year to date cooling degree days 0  
Moisture  
Dew Point 30 °F    
Average Humidity 71    
Maximum Humidity 94    
Minimum Humidity 50    
Precipitation  
Precipitation 0.00 in 0.03 in 1.07 in (1944)
Month to date precipitation 0.03  
Year to date precipitation 0.03  
Sea Level Pressure  
Sea Level Pressure 30.18 in    
Wind  
Wind Speed 11 mph (North)    
Max Wind Speed 17 mph    
Max Gust Speed 21 mph    
Visibility 9 miles    
Events Rain    
T = Trace of Precipitation, MM = Missing Value Source: NWS Daily Summary

Daily Weather History Graph

Daily Weather History Graph

Search for Another Location

Airport or City:

Trip Planner

Search our weather history database for the weather conditions in past years. The results will help you decide how hot, cold, wet, or windy it might be!

Date:

Astronomy

Jan. 01, 2013 Rise Set
Actual Time 7:37 AM CST 5:45 PM CST
Civil Twilight 7:11 AM CST 6:11 PM CST
Nautical Twilight 6:40 AM CST 6:42 PM CST
Astronomical Twilight 6:10 AM CST 7:11 PM CST
Moon 10:00 PM CST (1/1) 10:06 AM CST (1/1)
Length of Visible Light 11h 00m
Length of Day
10h 07m
Waning Gibbous, 83% of the Moon is Illuminated
Jan 1
Waning Gibbous
Jan 4
Last Quarter
Jan 11
New
Jan 18
First Quarter
Jan 26
Full

Hourly Weather History & Observations

Time (CST) Temp. Windchill Dew Point Humidity Pressure Visibility Wind Dir Wind Speed Gust Speed Precip Events Conditions
12:15 AM 44.6 °F 39.7 °F 41.4 °F 88% 30.04 in 7.0 mi North 9.2 mph - N/A   Overcast
12:35 AM 44.6 °F 40.2 °F 42.1 °F 91% 30.04 in 5.0 mi North 8.1 mph - N/A   Overcast
12:55 AM 44.8 °F 40.4 °F 42.8 °F 93% 30.05 in 4.0 mi North 8.1 mph - N/A   Overcast
1:15 AM 45.3 °F 40.6 °F 43.7 °F 94% 30.05 in 4.0 mi North 9.2 mph - N/A   Overcast
1:35 AM 45.3 °F 39.0 °F 43.3 °F 93% 30.05 in 5.0 mi North 13.8 mph - N/A   Overcast
1:55 AM 44.6 °F 38.1 °F 41.4 °F 88% 30.05 in 7.0 mi North 13.8 mph - N/A   Overcast
2:15 AM 44.2 °F 38.8 °F 40.5 °F 87% 30.06 in 7.0 mi North 10.4 mph - N/A   Overcast
2:35 AM 43.9 °F 37.2 °F 40.1 °F 87% 30.06 in 7.0 mi North 13.8 mph - N/A   Overcast
2:55 AM 43.3 °F 36.8 °F 39.6 °F 87% 30.07 in 7.0 mi North 12.7 mph - N/A   Overcast
3:15 AM 43.0 °F 35.7 °F 39.0 °F 86% 30.08 in 7.0 mi North 15.0 mph - N/A   Overcast
3:35 AM 42.6 °F 34.9 °F 38.3 °F 85% 30.08 in 10.0 mi North 16.1 mph 20.7 mph N/A   Overcast
3:55 AM 42.1 °F 35.2 °F 37.6 °F 84% 30.09 in 10.0 mi NNE 12.7 mph - N/A   Overcast
4:15 AM 41.9 °F 35.9 °F 37.0 °F 83% 30.11 in 10.0 mi North 10.4 mph - N/A   Overcast
4:35 AM 40.8 °F 34.1 °F 35.6 °F 82% 30.09 in 10.0 mi NNE 11.5 mph - N/A   Overcast
4:55 AM 39.6 °F 33.0 °F 34.5 °F 82% 30.09 in 10.0 mi NNE 10.4 mph - N/A   Overcast
5:15 AM 38.7 °F 30.9 °F 33.8 °F 83% 30.11 in 10.0 mi North 12.7 mph - N/A Rain Light Rain
5:35 AM 37.8 °F 29.8 °F 33.1 °F 83% 30.11 in 10.0 mi North 12.7 mph - N/A   Overcast
5:55 AM 37.2 °F 29.1 °F 32.0 °F 81% 30.12 in 10.0 mi North 12.7 mph - N/A   Overcast
6:15 AM 36.7 °F 28.9 °F 31.3 °F 81% 30.13 in 10.0 mi North 11.5 mph - N/A   Overcast
6:35 AM 36.1 °F 26.2 °F 30.6 °F 80% 30.14 in 10.0 mi North 17.3 mph - N/A   Overcast
6:55 AM 35.6 °F 26.6 °F 30.2 °F 81% 30.16 in 10.0 mi North 13.8 mph 19.6 mph N/A   Overcast
7:15 AM 35.1 °F 26.4 °F 29.8 °F 81% 30.17 in 10.0 mi North 12.7 mph - N/A   Overcast
7:35 AM 34.7 °F 25.9 °F 29.3 °F 81% 30.18 in 10.0 mi North 12.7 mph - N/A   Overcast
7:55 AM 34.5 °F 26.2 °F 29.1 °F 81% 30.20 in 10.0 mi North 11.5 mph - N/A   Overcast
8:15 AM 34.3 °F 25.9 °F 29.1 °F 81% 30.19 in 10.0 mi North 11.5 mph - N/A   Overcast
8:35 AM 34.0 °F 24.2 °F 28.6 °F 81% 30.20 in 10.0 mi North 15.0 mph - N/A   Overcast
8:55 AM 33.8 °F 25.3 °F 28.0 °F 79% 30.21 in 10.0 mi North 11.5 mph - N/A   Scattered Clouds
9:15 AM 34.5 °F 24.1 °F 28.4 °F 78% 30.21 in 10.0 mi North 17.3 mph - N/A   Clear
9:35 AM 35.8 °F 26.9 °F 28.2 °F 74% 30.23 in 10.0 mi North 13.8 mph - N/A   Clear
9:55 AM 36.3 °F 28.4 °F 28.0 °F 72% 30.24 in 10.0 mi North 11.5 mph - N/A   Clear
10:15 AM 37.2 °F 30.0 °F 28.0 °F 69% 30.25 in 10.0 mi North 10.4 mph - N/A   Clear
10:35 AM 37.8 °F 30.2 °F 28.0 °F 68% 30.25 in 10.0 mi NNE 11.5 mph - N/A   Clear
10:55 AM 38.8 °F 31.2 °F 28.2 °F 66% 30.25 in 10.0 mi North 12.7 mph 17.3 mph N/A   Clear
11:15 AM 40.1 °F 33.2 °F 28.4 °F 63% 30.25 in 10.0 mi North 11.5 mph - N/A   Clear
11:35 AM 41.0 °F 33.9 °F 28.4 °F 61% 30.24 in 10.0 mi North 12.7 mph 16.1 mph N/A   Clear
11:55 AM 42.3 °F 36.3 °F 28.8 °F 59% 30.22 in 10.0 mi North 10.4 mph - N/A   Clear
12:15 PM 43.5 °F 36.4 °F 28.6 °F 56% 30.21 in 10.0 mi North 15.0 mph - N/A   Clear
12:35 PM 44.4 °F 38.6 °F 28.4 °F 53% 30.20 in 10.0 mi NNW 11.5 mph 18.4 mph N/A   Clear
12:55 PM 44.1 °F 37.1 °F 28.0 °F 53% 30.19 in 10.0 mi North 15.0 mph - N/A   Clear
1:15 PM 44.2 °F 38.0 °F 27.5 °F 52% 30.19 in 10.0 mi North 12.7 mph 17.3 mph N/A   Clear
1:35 PM 44.2 °F 38.4 °F 27.3 °F 51% 30.18 in 10.0 mi North 11.5 mph - N/A   Clear
1:55 PM 44.4 °F 39.0 °F 27.9 °F 52% 30.18 in 10.0 mi North 10.4 mph - N/A   Clear
2:15 PM 44.1 °F 37.7 °F 28.0 °F 53% 30.18 in 10.0 mi North 12.7 mph - N/A   Clear
2:35 PM 44.2 °F 38.0 °F 28.0 °F 53% 30.18 in 10.0 mi North 12.7 mph - N/A   Clear
2:55 PM 44.4 °F 39.0 °F 27.7 °F 52% 30.18 in 10.0 mi North 10.4 mph - N/A   Clear
3:15 PM 45.1 °F 39.5 °F 27.5 °F 50% 30.19 in 10.0 mi NNW 11.5 mph 16.1 mph N/A   Clear
3:35 PM 44.8 °F 40.4 °F 27.3 °F 50% 30.19 in 10.0 mi North 8.1 mph - N/A   Clear
3:55 PM 44.6 °F 38.4 °F 27.9 °F 52% 30.19 in 10.0 mi North 12.7 mph - N/A   Clear
4:15 PM 43.9 °F 38.8 °F 27.3 °F 52% 30.20 in 10.0 mi NNW 9.2 mph - N/A   Clear
4:35 PM 43.0 °F 37.7 °F 26.6 °F 52% 30.20 in 10.0 mi North 9.2 mph - N/A   Clear
4:55 PM 42.4 °F 37.0 °F 26.1 °F 52% 30.21 in 10.0 mi North 9.2 mph - N/A   Clear
5:15 PM 41.9 °F 36.9 °F 25.5 °F 52% 30.21 in 10.0 mi North 8.1 mph - N/A   Clear
5:35 PM 41.2 °F 36.6 °F 25.2 °F 53% 30.21 in 10.0 mi North 6.9 mph - N/A   Clear
5:55 PM 40.1 °F 34.7 °F 24.8 °F 54% 30.21 in 10.0 mi North 8.1 mph - N/A   Clear
6:15 PM 39.2 °F 35.0 °F 24.1 °F 55% 30.22 in 10.0 mi North 5.8 mph - N/A   Clear
6:35 PM 37.9 °F 33.5 °F 24.3 °F 58% 30.22 in 10.0 mi North 5.8 mph - N/A   Clear
6:55 PM 36.9 °F 32.2 °F 24.8 °F 62% 30.22 in 10.0 mi North 5.8 mph - N/A   Clear
7:15 PM 36.1 °F 32.3 °F 25.2 °F 64% 30.23 in 10.0 mi North 4.6 mph - N/A   Clear
7:35 PM 35.6 °F 30.7 °F 25.3 °F 66% 30.24 in 10.0 mi North 5.8 mph - N/A   Clear
7:55 PM 35.2 °F 28.8 °F 25.2 °F 67% 30.25 in 10.0 mi North 8.1 mph - N/A   Clear
8:15 PM 35.2 °F 30.3 °F 25.0 °F 66% 30.25 in 10.0 mi North 5.8 mph - N/A   Clear
8:35 PM 34.5 °F 28.6 °F 24.8 °F 68% 30.25 in 10.0 mi North 6.9 mph - N/A   Clear
8:55 PM 33.8 °F 28.6 °F 25.0 °F 70% 30.26 in 10.0 mi North 5.8 mph - N/A   Clear
9:15 PM 32.7 °F 26.4 °F 24.8 °F 73% 30.27 in 10.0 mi North 6.9 mph - N/A   Clear
9:35 PM 32.5 °F 27.1 °F 24.4 °F 72% 30.27 in 10.0 mi NNE 5.8 mph - N/A   Clear
9:55 PM 32.4 °F 26.9 °F 24.1 °F 72% 30.28 in 10.0 mi NNE 5.8 mph - N/A   Clear
10:15 PM 32.0 °F 27.5 °F 23.9 °F 72% 30.29 in 10.0 mi NNE 4.6 mph - N/A   Clear
10:35 PM 31.3 °F 25.6 °F 23.9 °F 74% 30.29 in 10.0 mi North 5.8 mph - N/A   Clear
10:55 PM 30.7 °F 24.1 °F 23.9 °F 76% 30.28 in 10.0 mi North 6.9 mph - N/A   Clear
11:15 PM 30.4 °F 23.6 °F 23.9 °F 77% 30.28 in 10.0 mi North 6.9 mph - N/A   Clear
11:35 PM 30.2 °F 23.4 °F 24.1 °F 78% 30.28 in 10.0 mi North 6.9 mph - N/A   Clear
11:55 PM 30.2 °F 24.3 °F 24.4 °F 79% 30.28 in 10.0 mi North 5.8 mph - N/A   Clear